EW7112 Weather Reports


Display with metric or nautical units.
time (UTC)temp
F
wind
direction
speed
MPH
gust
MPH
rain 1hr
in
rain 24hr
in
rain mn
in
humidity
%
barometer
mb
20260831031518 92 99 1.0 4.0 0.00 0.00 0.00 42 991.2
20260831030016 93 94 1.0 3.0 0.00 0.00 0.00 42 991.2
20260831024516 93 136 1.0 5.0 0.00 0.00 0.00 41 991.0
20260831023015 93 114 1.0 3.0 0.00 0.00 0.00 41 990.8
20260831021529 94 101 1.0 3.0 0.00 0.00 0.00 40 990.6
20260831020015 94 137 1.0 4.0 0.00 0.00 0.00 39 990.2
20260831014514 95 139 2.0 5.0 0.00 0.00 0.00 38 990.0
20260831013015 95 96 2.0 4.0 0.00 0.00 0.00 37 989.9
20260831011531 96 89 0.0 4.0 0.00 0.00 0.00 35 989.8
20260831010011 96 109 1.0 3.0 0.00 0.00 0.00 34 989.8
20260831004511 97 83 0.0 7.0 0.00 0.00 0.00 33 989.7
20260831003015 97 95 1.0 7.0 0.00 0.00 0.00 32 989.6
20260831001515 98 214 2.0 5.0 0.00 0.00 0.00 32 989.7
20260831000008 98 220 3.0 8.0 0.00 0.00 0.00 32 989.8
20260830234518 99 110 3.0 6.0 0.00 0.00 0.00 31 989.8
20260830233009 99 134 5.0 9.0 0.00 0.00 0.00 31 989.8
20260830231509 99 209 3.0 8.0 0.00 0.00 0.00 30 989.8
20260830230002 100 139 3.0 6.0 0.00 0.00 0.00 30 989.9
20260830224502 100 191 4.0 11.0 0.00 0.00 0.00 29 990.1
20260830223001 100 108 3.0 9.0 0.00 0.00 0.00 28 990.1
20260830221600 101 150 4.0 11.0 0.00 0.00 0.00 29 990.1
20260830214600 101 211 3.0 8.0 0.00 0.00 0.00 30 990.1
20260830213054 102 149 4.0 11.0 0.00 0.00 0.00 30 990.2
20260830211551 101 110 3.0 11.0 0.00 0.00 0.00 29 990.4
20260830210048 100 248 3.0 8.0 0.00 0.00 0.00 31 990.6
20260830204545 100 128 2.0 8.0 0.00 0.00 0.00 32 990.8
20260830203043 100 180 3.0 9.0 0.00 0.00 0.00 32 991.0
20260830201543 100 121 1.0 10.0 0.00 0.00 0.00 32 991.2
20260830200036 101 257 2.0 8.0 0.00 0.00 0.00 32 991.4
20260830194534 100 154 3.0 7.0 0.00 0.00 0.00 33 991.5
20260830193031 99 94 4.0 12.0 0.00 0.00 0.00 35 991.8
20260830191529 99 71 3.0 12.0 0.00 0.00 0.00 34 991.9
20260830190025 100 198 4.0 11.0 0.00 0.00 0.00 34 992.1
20260830184523 99 269 3.0 9.0 0.00 0.00 0.00 35 992.3
20260830183021 98 153 3.0 10.0 0.00 0.00 0.00 36 992.6
20260830181519 98 262 2.0 9.0 0.00 0.00 0.00 38 992.7
20260830180016 97 173 5.0 12.0 0.00 0.00 0.00 39 993.0
20260830174525 97 195 4.0 10.0 0.00 0.00 0.00 39 993.3
20260830173011 96 214 3.0 10.0 0.00 0.00 0.00 41 993.4
20260830171509 96 271 4.0 9.0 0.00 0.00 0.00 41 993.6
20260830170006 94 255 2.0 8.0 0.00 0.00 0.00 45 993.9
20260830164506 94 224 3.0 12.0 0.00 0.00 0.00 46 994.0
20260830163103 93 162 4.0 11.0 0.00 0.00 0.00 48 994.1
20260830161609 92 219 2.0 10.0 0.00 0.00 0.00 51 994.3
20260830160053 91 95 2.0 9.0 0.00 0.00 0.00 53 994.2
20260830154549 90 192 3.0 7.0 0.00 0.00 0.00 55 994.3
20260830153046 90 147 2.0 6.0 0.00 0.00 0.00 55 994.3
20260830151547 89 242 3.0 7.0 0.00 0.00 0.00 56 994.3
20260830150040 88 244 2.0 7.0 0.00 0.00 0.00 58 994.2
20260830144538 87 207 4.0 7.0 0.00 0.00 0.00 59 994.2
20260830143035 86 240 2.0 8.0 0.00 0.00 0.00 61 994.2
20260830141533 85 165 3.0 6.0 0.00 0.00 0.00 63 994.3
20260830140032 84 169 2.0 4.0 0.00 0.00 0.00 65 994.3
20260830134529 83 225 0.0 5.0 0.00 0.00 0.00 67 994.2
20260830133026 83 220 2.0 8.0 0.00 0.00 0.00 68 994.2
20260830131524 82 205 1.0 4.0 0.00 0.00 0.00 69 994.1
20260830130021 81 155 0.0 1.0 0.00 0.00 0.00 70 993.9
20260830124533 81 155 0.0 0.0 0.00 0.00 0.00 69 993.6
20260830123018 81 155 0.0 1.0 0.00 0.00 0.00 69 993.4
20260830121514 81 155 0.0 0.0 0.00 0.00 0.00 68 993.3
20260830120013 81 155 0.0 3.0 0.00 0.00 0.00 67 993.2
20260830114510 81 155 0.0 2.0 0.00 0.00 0.00 66 993.0
20260830113008 82 155 0.0 2.0 0.00 0.00 0.00 66 992.8
20260830111511 82 155 0.0 1.0 0.00 0.00 0.00 64 992.7
20260830110002 82 122 0.0 1.0 0.00 0.00 0.00 64 992.7
20260830104606 83 120 1.0 2.0 0.00 0.00 0.00 62 992.4
20260830103058 83 120 0.0 3.0 0.00 0.00 0.00 61 992.3
20260830101602 84 120 0.0 2.0 0.00 0.00 0.00 60 992.2
20260830100053 84 120 0.0 2.0 0.00 0.00 0.00 59 992.1
20260830094556 84 125 1.0 3.0 0.00 0.00 0.00 58 992.1
20260830093052 85 175 0.0 2.0 0.00 0.00 0.00 58 992.3
20260830091547 85 186 0.0 3.0 0.00 0.00 0.00 56 992.2
20260830090044 85 103 1.0 3.0 0.00 0.00 0.00 56 992.2
20260830084544 85 179 0.0 2.0 0.00 0.00 0.00 55 992.2
20260830083049 85 250 0.0 4.0 0.00 0.00 0.00 55 992.2
20260830081540 86 117 0.0 2.0 0.00 0.00 0.00 54 992.2
20260830080041 86 98 0.0 1.0 0.00 0.00 0.00 53 992.1
20260830074539 86 98 1.0 3.0 0.00 0.00 0.00 53 992.2
20260830073039 87 112 0.0 2.0 0.00 0.00 0.00 53 992.1
20260830071552 87 143 0.0 1.0 0.00 0.00 0.00 52 992.1
20260830070029 87 126 0.0 1.0 0.00 0.00 0.00 50 992.1
20260830064528 88 262 1.0 3.0 0.00 0.00 0.00 49 992.1
20260830063025 88 210 0.0 1.0 0.00 0.00 0.00 48 992.1
20260830061523 88 210 0.0 3.0 0.00 0.00 0.00 47 992.2
20260830060022 89 130 0.0 1.0 0.00 0.00 0.00 45 992.2
20260830054527 90 130 0.0 3.0 0.00 0.00 0.00 44 992.2
20260830053015 90 193 0.0 3.0 0.00 0.00 0.00 44 992.2
20260830051518 90 144 0.0 3.0 0.00 0.00 0.00 43 992.3
20260830050009 91 131 2.0 4.0 0.00 0.00 0.00 42 992.2
20260830044508 91 91 0.0 4.0 0.00 0.00 0.00 42 992.2
20260830043009 91 187 0.0 4.0 0.00 0.00 0.00 42 992.3
20260830041510 92 146 0.0 3.0 0.00 0.00 0.00 41 992.2
20260830040007 92 122 0.0 2.0 0.00 0.00 0.00 40 992.2
20260830034507 93 110 1.0 4.0 0.00 0.00 0.00 39 992.1
20260830033006 93 181 0.0 4.0 0.00 0.00 0.00 38 992.0